sat.trackr.live / text

‹ back to catalog

STARLINK-31828

NORAD 59767 · 2024-091Q

PAYLOAD ACTIVE UNKNOWN

§ Identity

Operator
Country
US
Launch date
2024-05-14
Launch site
AFWTR
Launch vehicle
Mass (kg)
RCS (m²)

Purposes: comms

External: N2YO · Heavens-Above · Gunter

§ Orbital elements

Epoch: 2026-09-21T07:02:01.597056Z

Period
94.01 min
Inclination
53.1602°
Eccentricity
0.0001294
Mean motion
15.31705664 rev/d
Perigee alt
469.8 km
Apogee alt
471.6 km
Semi-major
6,848.9 km
B*
3.1732e-5
RAAN
196.8041°
Arg perigee
81.9968°
Mean anomaly
278.1180°
Rev number
13,297

§ Raw data

STARLINK-318281 59767U 24091Q   26264.29307404  .00000620  00000+0  31732-4 0  99962 59767  53.1602 196.8041 0001294  81.9968 278.1180 15.31705664132976

JSON: /api/v1/satellites/59767 · /tle

For live sub-satellite position, see the globe view (requires WebGL).

§ Visibility from observer

Set your observer location to see the next 7 days of passes ≥ 10°. The values pass through the URL so the page stays shareable.

No JS? Fill the form by hand. The geolocation button needs JavaScript.